Location: ?????
(31.8092°N, 35.2590°E)
Time: 20:23:43
(UTC+00:00)

Meteor 2-3 Rocket - Pass Details

Date: 20 June 2021
Orbit: 842 x 885 km, 81.2° (Epoch: 23 July)

Event Time Altitude Azimuth Distance (km) Brightness Sun altitude
Exits shadow 23:41:19 82° 132° (SE) 858 3.6 -27.7°
Maximum altitude 23:41:28 84° 97° (E) 855 3.6 -27.7°
Drops below altitude 10° 23:47:04 10° 9° (N) 2,466 7.0 -27.0°
Sets 23:49:28 0° 9° (N) 3,402 7.9 -26.8°
